TimeCDT,TemperatureF,Dew PointF,Humidity,Sea Level PressureIn,VisibilityMPH,Wind Direction,Wind SpeedMPH,Gust SpeedMPH,PrecipitationIn,Events,Conditions,WindDirDegrees,DateUTC
12:15 AM,80.6,64.4,58,30.06,10.0,SSW,3.5,-,N/A,,Mostly Cloudy,200,2013-08-29 05:15:00
12:35 AM,78.8,64.4,61,30.05,10.0,SSW,3.5,-,N/A,,Scattered Clouds,200,2013-08-29 05:35:00
12:55 AM,78.8,64.4,61,30.05,10.0,South,3.5,-,N/A,,Clear,170,2013-08-29 05:55:00
1:15 AM,78.8,64.4,61,30.04,10.0,SSE,3.5,-,N/A,,Clear,160,2013-08-29 06:15:00
1:35 AM,78.8,64.4,61,30.04,10.0,Calm,Calm,-,N/A,,Clear,0,2013-08-29 06:35:00
1:55 AM,80.6,64.4,58,30.05,10.0,South,4.6,-,N/A,,Clear,190,2013-08-29 06:55:00
2:15 AM,80.6,64.4,58,30.05,10.0,Calm,Calm,-,N/A,,Clear,0,2013-08-29 07:15:00
2:35 AM,78.8,64.4,61,30.05,10.0,Calm,Calm,-,N/A,,Clear,0,2013-08-29 07:35:00
2:55 AM,78.8,66.2,65,30.05,10.0,Calm,Calm,-,N/A,,Clear,0,2013-08-29 07:55:00
3:15 AM,78.8,66.2,65,30.05,10.0,Calm,Calm,-,N/A,,Clear,0,2013-08-29 08:15:00
3:35 AM,77.0,66.2,69,30.05,10.0,Calm,Calm,-,N/A,,Clear,0,2013-08-29 08:35:00
3:55 AM,77.0,66.2,69,30.05,10.0,Calm,Calm,-,N/A,,Clear,0,2013-08-29 08:55:00
4:15 AM,77.0,66.2,69,30.04,10.0,Calm,Calm,-,N/A,,Clear,0,2013-08-29 09:15:00
4:35 AM,77.0,64.4,65,30.04,10.0,Calm,Calm,-,N/A,,Clear,0,2013-08-29 09:35:00
4:55 AM,77.0,64.4,65,30.04,10.0,Calm,Calm,-,N/A,,Clear,0,2013-08-29 09:55:00
5:15 AM,77.0,66.2,69,30.05,10.0,Calm,Calm,-,N/A,,Clear,0,2013-08-29 10:15:00
5:35 AM,77.0,64.4,65,30.05,10.0,Calm,Calm,-,N/A,,Clear,0,2013-08-29 10:35:00
5:55 AM,77.0,66.2,69,30.06,10.0,Calm,Calm,-,N/A,,Clear,0,2013-08-29 10:55:00
6:15 AM,75.2,66.2,73,30.06,10.0,Calm,Calm,-,N/A,,Clear,0,2013-08-29 11:15:00
6:35 AM,75.2,66.2,73,30.06,10.0,Calm,Calm,-,N/A,,Clear,0,2013-08-29 11:35:00
6:55 AM,75.2,64.4,69,30.07,10.0,Calm,Calm,-,N/A,,Clear,0,2013-08-29 11:55:00
7:15 AM,77.0,64.4,65,30.08,9.0,Calm,Calm,-,N/A,,Clear,0,2013-08-29 12:15:00
7:35 AM,77.0,62.6,61,30.08,10.0,West,3.5,-,N/A,,Clear,280,2013-08-29 12:35:00
7:55 AM,78.8,64.4,61,30.09,10.0,Calm,Calm,-,N/A,,Clear,0,2013-08-29 12:55:00
8:15 AM,80.6,66.2,61,30.08,10.0,WSW,4.6,-,N/A,,Clear,250,2013-08-29 13:15:00
8:35 AM,82.4,68.0,62,30.09,10.0,NW,3.5,-,N/A,,Clear,310,2013-08-29 13:35:00
8:55 AM,82.4,69.8,66,30.09,10.0,West,3.5,-,N/A,,Clear,280,2013-08-29 13:55:00
9:15 AM,80.6,69.8,70,30.09,10.0,Calm,Calm,-,N/A,,Scattered Clouds,0,2013-08-29 14:15:00
9:35 AM,80.6,69.8,70,30.09,10.0,NNW,3.5,-,N/A,,Partly Cloudy,330,2013-08-29 14:35:00
9:55 AM,82.4,68.0,62,30.09,10.0,WNW,3.5,-,N/A,,Partly Cloudy,290,2013-08-29 14:55:00
10:15 AM,82.4,66.2,58,30.09,10.0,North,5.8,-,N/A,,Partly Cloudy,360,2013-08-29 15:15:00
10:35 AM,84.2,66.2,55,30.09,10.0,NNE,4.6,-,N/A,,Clear,20,2013-08-29 15:35:00
10:55 AM,84.2,66.2,55,30.09,10.0,Calm,Calm,-,N/A,,Clear,0,2013-08-29 15:55:00
11:15 AM,84.2,66.2,55,30.09,10.0,NNW,5.8,-,N/A,,Scattered Clouds,340,2013-08-29 16:15:00
11:35 AM,84.2,66.2,55,30.09,10.0,NNW,5.8,-,N/A,,Scattered Clouds,330,2013-08-29 16:35:00
11:55 AM,86.0,66.2,51,30.08,10.0,Calm,Calm,-,N/A,,Partly Cloudy,0,2013-08-29 16:55:00
12:15 PM,87.8,66.2,49,30.08,10.0,NNW,8.1,-,N/A,,Mostly Cloudy,330,2013-08-29 17:15:00
12:35 PM,84.2,64.4,51,30.07,10.0,North,5.8,-,N/A,,Mostly Cloudy,10,2013-08-29 17:35:00
12:55 PM,87.8,64.4,46,30.07,10.0,WNW,4.6,-,N/A,,Partly Cloudy,300,2013-08-29 17:55:00
1:15 PM,86.0,62.6,45,30.06,10.0,NNE,5.8,-,N/A,,Partly Cloudy,30,2013-08-29 18:15:00
1:35 PM,87.8,64.4,46,30.06,10.0,ENE,6.9,-,N/A,,Clear,60,2013-08-29 18:35:00
1:55 PM,87.8,64.4,46,30.05,10.0,NNE,9.2,-,N/A,,Partly Cloudy,20,2013-08-29 18:55:00
2:15 PM,87.8,62.6,43,30.05,10.0,NNE,4.6,-,N/A,,Clear,30,2013-08-29 19:15:00
2:35 PM,87.8,64.4,46,30.04,10.0,North,5.8,-,N/A,,Partly Cloudy,10,2013-08-29 19:35:00
2:55 PM,87.8,62.6,43,30.03,10.0,ENE,5.8,-,N/A,,Partly Cloudy,70,2013-08-29 19:55:00
3:15 PM,87.8,64.4,46,30.02,10.0,North,4.6,-,N/A,,Clear,10,2013-08-29 20:15:00
3:35 PM,89.6,62.6,40,30.02,10.0,Calm,Calm,-,N/A,,Scattered Clouds,0,2013-08-29 20:35:00
3:55 PM,89.6,62.6,40,30.01,10.0,East,3.5,-,N/A,,Partly Cloudy,80,2013-08-29 20:55:00
4:15 PM,89.6,62.6,40,30.01,10.0,ENE,3.5,-,N/A,,Clear,60,2013-08-29 21:15:00
4:35 PM,89.6,60.8,38,30.00,10.0,NNE,5.8,-,N/A,,Clear,30,2013-08-29 21:35:00
4:55 PM,89.6,60.8,38,30.00,10.0,Calm,Calm,-,N/A,,Clear,0,2013-08-29 21:55:00
5:15 PM,89.6,62.6,40,30.00,10.0,West,4.6,-,N/A,,Clear,280,2013-08-29 22:15:00
5:35 PM,89.6,59.0,36,30.00,10.0,West,3.5,-,N/A,,Clear,280,2013-08-29 22:35:00
5:55 PM,89.6,60.8,38,30.00,10.0,WNW,4.6,-,N/A,,Clear,300,2013-08-29 22:55:00
6:15 PM,89.6,60.8,38,30.00,10.0,Calm,Calm,-,N/A,,Clear,0,2013-08-29 23:15:00
6:35 PM,89.6,60.8,38,30.00,10.0,NW,4.6,-,N/A,,Clear,320,2013-08-29 23:35:00
6:55 PM,87.8,60.8,40,30.00,10.0,North,5.8,-,N/A,,Clear,360,2013-08-29 23:55:00
7:15 PM,87.8,60.8,40,30.00,10.0,Calm,Calm,-,N/A,,Clear,0,2013-08-30 00:15:00
7:35 PM,86.0,60.8,43,30.01,10.0,North,3.5,-,N/A,,Clear,10,2013-08-30 00:35:00
7:55 PM,86.0,62.6,45,30.01,10.0,NNE,4.6,-,N/A,,Clear,20,2013-08-30 00:55:00
8:15 PM,86.0,62.6,45,30.01,10.0,Calm,Calm,-,N/A,,Clear,0,2013-08-30 01:15:00
8:35 PM,84.2,62.6,48,30.01,10.0,Calm,Calm,-,N/A,,Clear,0,2013-08-30 01:35:00
8:55 PM,84.2,64.4,51,30.01,10.0,NE,3.5,-,N/A,,Clear,50,2013-08-30 01:55:00
9:15 PM,84.2,62.6,48,30.02,10.0,NNE,4.6,-,N/A,,Clear,30,2013-08-30 02:15:00
9:35 PM,84.2,66.2,55,30.02,10.0,East,4.6,-,N/A,,Clear,90,2013-08-30 02:35:00
9:55 PM,82.4,68.0,62,30.03,10.0,East,3.5,-,N/A,,Clear,90,2013-08-30 02:55:00
10:15 PM,82.4,68.0,62,30.03,10.0,SE,4.6,-,N/A,,Clear,130,2013-08-30 03:15:00
10:35 PM,82.4,68.0,62,30.03,10.0,SSE,4.6,-,N/A,,Clear,160,2013-08-30 03:35:00
10:55 PM,82.4,69.8,66,30.03,10.0,SSE,4.6,-,N/A,,Clear,160,2013-08-30 03:55:00
11:15 PM,82.4,69.8,66,30.03,10.0,South,3.5,-,N/A,,Clear,170,2013-08-30 04:15:00
11:35 PM,82.4,69.8,66,30.03,10.0,South,4.6,-,N/A,,Clear,180,2013-08-30 04:35:00
11:55 PM,82.4,69.8,66,30.03,10.0,South,4.6,-,N/A,,Clear,170,2013-08-30 04:55:00